Find Local Weather

World > North America > United States > New York

Mohawk, New York Regional Weather

Lat: 43.01N, Lon: 75.01W
Wx Zone: NYZ038
Feedback
Expires:201810160000;;243357
ASUS41 KGYX 152310
RWRGYX
WEATHER ROUNDUP FOR MAINE AND NEW HAMPSHIRE
NATIONAL WEATHER SERVICE GRAY ME
700 PM EDT MON OCT 15 2018


MAZ007-012-024-CTZ003-RIZ002-NYZ038-NYZ072-160000-
SOUTHERN NEW ENGLAND AND NY
  
CITY           SKY/WX    TMP DP  RH WIND       PRES   REMARKS
BOSTON         LGT RAIN  67  61  81 SW15G24   29.80F                  
WORCESTER      CLOUDY    60  59  96 SW16G23   29.81F                  
NANTUCKET      CLOUDY    64  63  96 S21       29.93F                  
PROVIDENCE     CLOUDY    65  64  97 S12       29.85F                  
HARTFORD       CLOUDY    62  60  93 S13       29.82F                  
ALBANY         LGT RAIN  61  56  83 S14       29.75F                  
NEW YORK CITY  CLOUDY    67  61  81 S13       29.88F                  
$$


SKY/WX - Weather  TMP - Temperature  DP - Dew Point  RH - Relative Humidity
WIND - Wind Direction/Speed PRES - Barometric Pressure